Regional Weather Roundup
Issued by NWS Memphis, TN

Home | Current Version | Previous Version | Text Only | Print | Product List | Glossary On
Versions: 1 2 3 4 5 6 7 8 9 10 11 12 13 14 15 16 17 18 19 20 21 22 23 24 25 26 27 28 29 30 31 32 33 34 35 36 37 38 39 40 41 42 43 44 45 46 47 48 49 50
000
ASUS44 KMEG 031810
RWRMEG
MEMPHIS CWA HOURLY WEATHER ROUNDUP
NATIONAL WEATHER SERVICE MEMPHIS TN
100 PM CDT SUN MAY 03 2015

...WEST TENNESSEE...

CITY           SKY/WX    TMP DP  RH WIND       PRES   REMARKS
MEMPHIS INTL   PTSUNNY   80  48  32 SW8G17    30.10F
6HR MIN TEMP:  57; 6HR MAX TEMP:  80;

NWS MEMPHIS      N/A     80 N/A N/A MISG        N/A
JACKSON        MOSUNNY   78  50  37 S9        30.11F
6HR MIN TEMP:  50; 6HR MAX TEMP:  78;

LEXINGTON      SUNNY     75  48  38 SW7       30.11F
DYERSBURG      MOSUNNY   79  43  27 S6        30.11F
6HR MIN TEMP:  54; 6HR MAX TEMP:  79;

PARIS          SUNNY     75  48  38 VRB6      30.11F


...EASTERN ARKANSAS...

CITY           SKY/WX    TMP DP  RH WIND       PRES   REMARKS
JONESBORO      MOSUNNY   78  49  35 S15       30.07F
6HR MIN TEMP:  48; 6HR MAX TEMP:  78;

WEST MEMPHIS   MOSUNNY   79  47  32 S12       30.08F
6HR MIN TEMP:  53; 6HR MAX TEMP:  79;

BATESVILLE     MOSUNNY   79  54  41 S8G17     30.06F
6HR MIN TEMP:  57; 6HR MAX TEMP:  79;

NEWPORT        MOSUNNY   80  51  36 S8G18     30.08F
6HR MIN TEMP:  54; 6HR MAX TEMP:  81;

WALNUT RIDGE   MOSUNNY   81  48  32 S16       30.06F
6HR MIN TEMP:  54; 6HR MAX TEMP:  81;

BLYTHEVILLE    PTSUNNY   79  45  29 SW10      30.09F
6HR MIN TEMP:  58; 6HR MAX TEMP:  79;

SEARCY         SUNNY     81  56  42 VRB6      30.07F
6HR MIN TEMP:  49; 6HR MAX TEMP:  81;

STUTTGART      MOSUNNY   82  55  39 SW10G16   30.08F
6HR MIN TEMP:  57; 6HR MAX TEMP:  82;

PINE BLUFF     MOSUNNY   80  56  43 S7        30.07S
6HR MIN TEMP:  54; 6HR MAX TEMP:  82;

MONTICELLO     PTSUNNY   82  56  40 SW7       30.07F
6HR MIN TEMP:  60; 6HR MAX TEMP:  82;



...NORTH MISSISSIPPI...

CITY           SKY/WX    TMP DP  RH WIND       PRES   REMARKS
TUPELO         MOSUNNY   80  47  31 SW9       30.12F
6HR MIN TEMP:  53; 6HR MAX TEMP:  80;

OXFORD         LGT RAIN  77  45  31 W6        30.13F
OLIVE BRANCH   PTSUNNY   77  48  36 S7        30.11F
TUNICA         MOSUNNY   79  48  34 SW9       30.10F
CLARKSDALE     MOSUNNY   81  54  39 CALM      30.09F
CORINTH        MOSUNNY   77  50  38 SW8G15    30.12F
GREENWOOD      SUNNY     81  51  35 VRB6      30.10F
6HR MIN TEMP:  55; 6HR MAX TEMP:  81;

COLUMBUS       SUNNY     82  49  31 SW12      30.12F
6HR MIN TEMP:  52; 6HR MAX TEMP:  83;

STARKVILLE     FAIR      79  50  36 S3        30.12F
GOLDEN TRIANGL MOSUNNY   79  54  41 S12       30.12F


...SOUTHEAST MISSOURI...

CITY           SKY/WX    TMP DP  RH WIND       PRES   REMARKS
WEST PLAINS    SUNNY     76  52  43 S13       30.05F
6HR MIN TEMP:  59; 6HR MAX TEMP:  76;

POPLAR BLUFF   PTSUNNY   77  46  33 SW14      30.05F
6HR MIN TEMP:  56; 6HR MAX TEMP:  77;

CAPE GIRARDEAU MOSUNNY   79  46  31 SW14G21   30.06F
6HR MIN TEMP:  57; 6HR MAX TEMP:  79;



...NORTHWEST ALABAMA...

CITY           SKY/WX    TMP DP  RH WIND       PRES   REMARKS
MUSCLE SHOALS  SUNNY     78  51  38 W8        30.15F
6HR MIN TEMP:  51; 6HR MAX TEMP:  78;



...MIDDLE TENNESSEE...

CITY           SKY/WX    TMP DP  RH WIND       PRES   REMARKS
NASHVILLE      PTSUNNY   76  48  37 S9        30.14F
6HR MIN TEMP:  52; 6HR MAX TEMP:  79;

CLARKSVILLE    MOSUNNY   77  50  38 S9        30.11F
6HR MIN TEMP:  51; 6HR MAX TEMP:  77;

COLUMBIA       PTSUNNY   77  54  44 S6        30.12F


...WESTERN KENTUCKY...

CITY           SKY/WX    TMP DP  RH WIND       PRES   REMARKS
PADUCAH        MOSUNNY   79  46  31 S12G18    30.08F
6HR MIN TEMP:  57; 6HR MAX TEMP:  79;

FORT CAMPBELL  MOSUNNY   76  53  43 SW8G17    30.11F
6HR MIN TEMP:  53; 6HR MAX TEMP:  77; 6HR PCP: TRACE;



...CENTRAL ARKANSAS...

CITY           SKY/WX    TMP DP  RH WIND       PRES   REMARKS
LITTLE ROCK    MOSUNNY   81  53  37 SW8G16    30.06F
6HR MIN TEMP:  54; 6HR MAX TEMP:  82;



SKY/WX REPORTED AS FAIR MEANS FEW OR NO CLOUDS BELOW
12 THOUSAND FEET.




USA.gov is the U.S. government's official web portal to all federal, state and local government web resources and services.